• în România
  • Lista ţărilor
  • Pe 7 zile
  • Temperatura apei
  • Hartă satelitară
  • Meteo pe hartă
  • Widget-uri
  • user-avatar
    Intrare

    Meteo pe oră la Galevka

    Astăzi, 20 Iulie, Vineri

    Timp Temperatura Precipitaţii Vânt Presiune Umiditate
    00:00 +20°C° 0,2 mm 2 m/s 734 mmHg 95%
    01:00 +19°C° 0 mm 2 m/s 734 mmHg 96%
    02:00 +19°C° 0 mm 2 m/s 734 mmHg 96%
    03:00 +19°C° 0 mm 2 m/s 734 mmHg 97%
    04:00 +19°C° 0 mm 2 m/s 734 mmHg 97%
    05:00 +19°C° 0 mm 2 m/s 734 mmHg 97%
    06:00 +19°C° 0 mm 2 m/s 734 mmHg 96%
    07:00 +20°C° 0 mm 2 m/s 735 mmHg 94%
    08:00 +21°C° 0 mm 3 m/s 735 mmHg 91%
    09:00 +24°C° 0 mm 3 m/s 735 mmHg 88%
    10:00 +24°C° 0,4 mm 3 m/s 735 mmHg 85%
    11:00 +25°C° 0,4 mm 3 m/s 735 mmHg 82%
    12:00 +26°C° 0,4 mm 2 m/s 736 mmHg 79%
    13:00 +26°C° 1,5 mm 2 m/s 736 mmHg 78%
    14:00 +27°C° 1,5 mm 3 m/s 736 mmHg 76%
    15:00 +27°C° 1,5 mm 3 m/s 736 mmHg 74%
    16:00 +27°C° 0,5 mm 2 m/s 736 mmHg 76%
    17:00 +27°C° 0,5 mm 2 m/s 736 mmHg 78%
    18:00 +27°C° 0,5 mm 2 m/s 736 mmHg 79%
    19:00 +26°C° 0,2 mm 2 m/s 736 mmHg 83%
    20:00 +24°C° 0,2 mm 2 m/s 736 mmHg 86%
    21:00 +23°C° 0,2 mm 2 m/s 736 mmHg 89%
    22:00 +21°C° 0 mm 2 m/s 736 mmHg 90%
    23:00 +21°C° 0 mm 2 m/s 736 mmHg 91%

    Mâine, 21 Iulie, Sâmbătă

    Timp Temperatura Precipitaţii Vânt Presiune Umiditate
    00:00 +21°C° 0 mm 2 m/s 736 mmHg 92%
    01:00 +20°C° 0,1 mm 2 m/s 736 mmHg 93%
    02:00 +20°C° 0,1 mm 2 m/s 737 mmHg 93%
    03:00 +20°C° 0,1 mm 2 m/s 737 mmHg 94%
    04:00 +20°C° 0,6 mm 2 m/s 737 mmHg 94%
    05:00 +20°C° 0,6 mm 2 m/s 737 mmHg 95%
    06:00 +20°C° 0,6 mm 2 m/s 737 mmHg 95%
    07:00 +21°C° 0,2 mm 2 m/s 737 mmHg 91%
    08:00 +24°C° 0,2 mm 3 m/s 737 mmHg 88%
    09:00 +25°C° 0,2 mm 3 m/s 737 mmHg 84%
    10:00 +26°C° 1 mm 3 m/s 737 mmHg 80%
    11:00 +27°C° 1 mm 3 m/s 737 mmHg 77%
    12:00 +28°C° 1 mm 3 m/s 737 mmHg 73%
    13:00 +28°C° 1 mm 3 m/s 737 mmHg 72%
    14:00 +28°C° 1 mm 3 m/s 737 mmHg 71%
    15:00 +28°C° 1 mm 3 m/s 737 mmHg 70%
    16:00 +28°C° 0,5 mm 2 m/s 737 mmHg 73%
    17:00 +28°C° 0,5 mm 2 m/s 737 mmHg 75%
    18:00 +27°C° 0,5 mm 2 m/s 737 mmHg 78%
    19:00 +26°C° 0,4 mm 2 m/s 737 mmHg 82%
    20:00 +25°C° 0,4 mm 2 m/s 737 mmHg 86%
    21:00 +23°C° 0,4 mm 2 m/s 737 mmHg 89%
    22:00 +23°C° 0,2 mm 2 m/s 737 mmHg 91%
    23:00 +21°C° 0,2 mm 2 m/s 737 mmHg 92%

    Poimâine, 22 Iulie, Duminică

    Timp Temperatura Precipitaţii Vânt Presiune Umiditate
    00:00 +21°C° 0,2 mm 2 m/s 737 mmHg 93%
    01:00 +21°C° 0 mm 2 m/s 737 mmHg 94%
    02:00 +20°C° 0 mm 2 m/s 737 mmHg 94%
    03:00 +20°C° 0 mm 2 m/s 737 mmHg 95%
    04:00 +20°C° 0,2 mm 2 m/s 737 mmHg 95%
    05:00 +20°C° 0,2 mm 2 m/s 737 mmHg 95%
    06:00 +20°C° 0,2 mm 2 m/s 737 mmHg 95%
    07:00 +22°C° 0,1 mm 3 m/s 737 mmHg 92%
    08:00 +24°C° 0,1 mm 3 m/s 737 mmHg 88%
    09:00 +25°C° 0,1 mm 3 m/s 737 mmHg 85%
    10:00 +26°C° 0,6 mm 3 m/s 737 mmHg 81%
    11:00 +27°C° 0,6 mm 3 m/s 737 mmHg 77%
    12:00 +28°C° 0,6 mm 3 m/s 737 mmHg 73%
    13:00 +28°C° 0,4 mm 3 m/s 737 mmHg 71%
    14:00 +29°C° 0,4 mm 3 m/s 736 mmHg 70%
    15:00 +29°C° 0,4 mm 3 m/s 736 mmHg 68%
    16:00 +29°C° 0,4 mm 2 m/s 736 mmHg 71%
    17:00 +29°C° 0,4 mm 2 m/s 736 mmHg 74%
    18:00 +29°C° 0,4 mm 2 m/s 736 mmHg 78%
    19:00 +27°C° 0,3 mm 2 m/s 736 mmHg 82%
    20:00 +26°C° 0,3 mm 3 m/s 736 mmHg 86%
    21:00 +24°C° 0,3 mm 3 m/s 736 mmHg 90%
    22:00 +24°C° 0 mm 3 m/s 736 mmHg 91%
    23:00 +23°C° 0 mm 2 m/s 736 mmHg 92%

    23 Iulie, Luni

    Timp Temperatura Precipitaţii Vânt Presiune Umiditate
    00:00 +23°C° 0 mm 2 m/s 736 mmHg 94%
    01:00 +21°C° 0,1 mm 2 m/s 736 mmHg 94%
    02:00 +21°C° 0,1 mm 2 m/s 736 mmHg 95%
    03:00 +21°C° 0,1 mm 2 m/s 737 mmHg 96%
    04:00 +21°C° 0,1 mm 2 m/s 737 mmHg 96%
    05:00 +21°C° 0,1 mm 2 m/s 737 mmHg 96%
    06:00 +21°C° 0,1 mm 2 m/s 737 mmHg 96%
    07:00 +23°C° 0,2 mm 2 m/s 737 mmHg 94%
    08:00 +24°C° 0,2 mm 2 m/s 737 mmHg 92%
    09:00 +25°C° 0,2 mm 2 m/s 737 mmHg 90%
    10:00 +26°C° 0,5 mm 3 m/s 737 mmHg 86%
    11:00 +26°C° 0,5 mm 3 m/s 737 mmHg 82%
    12:00 +27°C° 0,5 mm 3 m/s 737 mmHg 78%
    13:00 +27°C° 1 mm 3 m/s 737 mmHg 77%
    14:00 +27°C° 1 mm 3 m/s 737 mmHg 76%
    15:00 +27°C° 1 mm 3 m/s 738 mmHg 76%
    16:00 +27°C° 1,1 mm 2 m/s 738 mmHg 78%
    17:00 +27°C° 1,1 mm 2 m/s 738 mmHg 81%
    18:00 +26°C° 1,1 mm 2 m/s 738 mmHg 83%
    19:00 +25°C° 0,1 mm 2 m/s 738 mmHg 86%
    20:00 +24°C° 0,1 mm 2 m/s 738 mmHg 89%
    21:00 +23°C° 0,1 mm 2 m/s 738 mmHg 92%
    22:00 +21°C° 0 mm 2 m/s 738 mmHg 92%
    23:00 +21°C° 0 mm 2 m/s 739 mmHg 93%

    24 Iulie, Marţi

    Timp Temperatura Precipitaţii Vânt Presiune Umiditate
    00:00 +22°C° 0 mm 1 m/s 739 mmHg 94%
    01:00 +21°C° 0 mm 1 m/s 739 mmHg 94%
    02:00 +21°C° 0 mm 1 m/s 739 mmHg 94%
    03:00 +21°C° 0 mm 1 m/s 739 mmHg 94%
    04:00 +21°C° 0 mm 1 m/s 739 mmHg 94%
    05:00 +20°C° 0 mm 2 m/s 740 mmHg 94%
    06:00 +20°C° 0 mm 2 m/s 740 mmHg 94%
    07:00 +23°C° 0 mm 2 m/s 740 mmHg 90%
    08:00 +24°C° 0 mm 2 m/s 740 mmHg 86%
    09:00 +25°C° 0 mm 3 m/s 741 mmHg 82%
    10:00 +26°C° 0 mm 3 m/s 741 mmHg 77%
    11:00 +27°C° 0 mm 3 m/s 741 mmHg 72%
    12:00 +28°C° 0 mm 2 m/s 741 mmHg 67%
    13:00 +29°C° 0,4 mm 2 m/s 741 mmHg 66%
    14:00 +29°C° 0,4 mm 2 m/s 741 mmHg 65%
    15:00 +29°C° 0,4 mm 2 m/s 741 mmHg 64%
    16:00 +28°C° 0,4 mm 2 m/s 741 mmHg 69%
    17:00 +28°C° 0,4 mm 3 m/s 741 mmHg 74%
    18:00 +27°C° 0,4 mm 3 m/s 741 mmHg 79%
    19:00 +26°C° 0,3 mm 3 m/s 741 mmHg 83%
    20:00 +25°C° 0,3 mm 3 m/s 741 mmHg 87%
    21:00 +22°C° 0,3 mm 3 m/s 742 mmHg 91%
    22:00 +22°C° 0,1 mm 3 m/s 742 mmHg 93%
    23:00 +22°C° 0,1 mm 3 m/s 742 mmHg 94%

    25 Iulie, Miercuri

    Timp Temperatura Precipitaţii Vânt Presiune Umiditate
    00:00 +21°C° 0,1 mm 3 m/s 742 mmHg 95%
    01:00 +21°C° 0,6 mm 3 m/s 742 mmHg 96%
    02:00 +20°C° 0,6 mm 3 m/s 742 mmHg 96%
    03:00 +20°C° 0,6 mm 3 m/s 743 mmHg 96%
    04:00 +20°C° 0,1 mm 3 m/s 743 mmHg 96%
    05:00 +20°C° 0,1 mm 3 m/s 743 mmHg 95%
    06:00 +21°C° 0,1 mm 3 m/s 743 mmHg 95%
    07:00 +22°C° 0,3 mm 3 m/s 743 mmHg 92%
    08:00 +23°C° 0,3 mm 4 m/s 744 mmHg 88%
    09:00 +25°C° 0,3 mm 4 m/s 744 mmHg 85%
    10:00 +25°C° 0,3 mm 5 m/s 744 mmHg 80%
    11:00 +26°C° 0,3 mm 5 m/s 744 mmHg 76%
    12:00 +26°C° 0,3 mm 5 m/s 744 mmHg 72%
    13:00 +26°C° 0,2 mm 5 m/s 744 mmHg 73%
    14:00 +25°C° 0,2 mm 4 m/s 744 mmHg 74%
    15:00 +25°C° 0,2 mm 3 m/s 744 mmHg 76%
    16:00 +24°C° 0,2 mm 3 m/s 744 mmHg 78%
    17:00 +24°C° 0,2 mm 3 m/s 744 mmHg 80%
    18:00 +24°C° 0,2 mm 3 m/s 744 mmHg 81%
    19:00 +22°C° 0 mm 3 m/s 744 mmHg 83%
    20:00 +21°C° 0 mm 3 m/s 744 mmHg 84%
    21:00 +21°C° 0 mm 3 m/s 744 mmHg 85%
    22:00 +20°C° 0 mm 3 m/s 744 mmHg 85%
    23:00 +20°C° 0 mm 3 m/s 744 mmHg 86%
    Arată mai mult